ELECTRON KICK STAGE R/B, 62086

Orbit data source: Space-Track

ELECTRON KICK STAGE R/B, 62086 is space debris in SSO originally from a launch on Mon, 25 Nov 2024 UTC launched from the Rocket Lab Launch Complex (RLLC). Debris objects in space refer to the collection of defunct objects orbiting the Earth. Examples of debris include non-operational satellites, rocket bodies, and fragments generated from explosions, collisions, or faulty payload assembly.

Loading next visibility...
Identifier
62086, 2024-219F
Orbit
SSO
Country
Flag of USUS
Related business
Manufacturer
Rocket Lab
Mission
Spacecraft
Bus & Motor
KICK STAGE, CURIE
Mass
~50 kg wet, ~50 kg dry
Launch date (UTC)
2024-11-25 (10 months ago)
Launch vehicle
Unknown
Launch site
Rocket Lab Launch Complex (RLLC)
Object type
Payload
Rocket body
Debris
Shape & HBR
Cyl, Unknown HBR
Radar Cross Section
2.827 m², Medium (>0.1 m² and < 1m²)

Expand to show TLE details & history
Last TLE update: 7 hours ago

TLE from 7 hours ago
0 ELECTRON KICK STAGE R/B
1 62086U 24219F   25258.55496660  .00005629  00000-0  51937-3 0  9993
2 62086  97.9693  66.3459 0055329 143.8385 216.6596 14.93891679 43892
Epoch: 2025-09-15T13:19Z
TLE epoch observation values (Epoch: 2025-09-15T13:19:09.114Z)
Latitude
0.00001°
Longitude
-128.20002°
Altitude
619.845 km
Speed
7.532 km/s
True Right ascension
04h 25m 23s
True Declination
0° 00' 00"
Sunlit
Object was in daylight at epoch
Visualization orbit readout
Latitude
Unknown
Longitude
Unknown
Altitude
Unknown
Speed
Unknown
Apparent Right ascension
Unknown
Apparent Declination
Unknown
Sunlit
N/A
Visualization observer readout
Local Sidereal Time
13:27:28
Azimuth
Unknown
Elevation
Unknown
Doppler factor
Unknown
Orbital elements
Apogee altitude
621.355 km
Perigee altitude
544.326 km
Semi-major axis
6,960.977 km
Eccentricity
0.00553
Inclination
97.9693°
RAAN
66.3459°
Arg. of periapsis
143.8385°
True anomaly
216.28314°
Mean anomaly
216.6596°
Eccentric anomaly
216.47116°
Mean motion
3.73713 °/min
Orbital period
96.33 mins
BSTAR
0.00051937
Loading maneuver chart data...
Computing Atmospheric mass density...
Loading historical data...
Loading historical data...
Loading historical data...
Loading historical data...
Loading historical data...
Loading historical data...
Loading historical data...

Documentation

Showing up to 5 results
|